Probability
0 0 0 0 0 0 0 0 0 0 0 0 0 0 0 0 0 0 0 0 0 0 0 0 0 0 0 0 0 0 0 0 0 0 0 0 0 0 0 0 0 0 0 0
0 0 0 0 0 0 0 0 0 0 0 0 0 0 0 0 0 0 0 0 0 0 0 0 0 0 0 0 0 0 0 0 0 0 0 0 0 0 0 0 0 0 0 0
0 0 0 0 0 0 0 0 0 0 0 0 0 0 0 0 0 0 0 0 0 0 0 0 0 0 0 0 0 0 0 0 0 0 0 0 0 0 0 0 0 0 0 0
0 0 0 0 0 0 0 0 0 0 0 0 0 0 0 0 0 0 0 0 0 0 0 0 0 0 0 0 0 0 0 0 0 0 0 0 0 0 0 0 0 0 0 0
0 0 0 0 0 0 0 0 0 0 0 0 0 0 0 0 0 0 0 0 0 0 0 0 0 0 0 0 0 0 0 0 0 0 0 0 0 0 0 0 0 0 0 0
0 0 0 0 0 0 0 0 0 0 0 0 0 0 0 0 0 0 0 0 0 0 0 0 0 0 0 0 0 0 0 0 0 0 0 0 0 0 0 0 0 0 0 0
0 0 0 0 0 0 0 0 0 0 0 0 0 0 0 0 0 0 0 0 0 0 0 0 0 0 0 0 0 0 0 0 0 0 0 0 0 0 0 0 0 0 0 0
0 0 0 0 0 0 0 0 0 0 0 0 0 0 0 0 0 0 0 0 0 0 0 0 0 0 0 0 0 0 0 0 0 0 0 0 0 0 0 0 0 0 0 0
0 0 0 0 0 0 0 0 0 0 0 0 0 0 0 0 0 0 0 0 0 0 0 0 0 0 0 0 0 0 0 0 0 0 0 0 0 0 0 0 0 0 0 0
0 0 0 0 0 0 0 0 0 0 0 0 0 0 0 0 0 0 0 0 0 0 0 0 0 0 0 0 0 0 0 0 0 0 0 0 0 0 0 0 0 0 0 0
0 0 0 0 0 0 0 0 0 0 0 0 0 0 0 0 0 0 0 0 0 0 0 0 0 0 0 0 0 0 0 0 0 0 0 0 0 0 0 0 0 0 0 0
0 0 0 0 0 0 0 0 0 0 0 0 0 0 0 0 0 0 0 0 0 0 0 0 0 0 0 0 0 0 0 0 0 0 0 0 0 0 0 0 0 0 0 0
0 0 0 0 0 0 0 0 0 0 0 0 0 0 0 0 0 0 0 0 0 0 0 0 0 0 0 0 0 0 0 0 0 0 0 0 0 0 0 0 0 0 0 0
0 0 0 0 0 0 0 0 0 0 0 0 0 0 0 0 0 0 0 0 0 0 0 0 0 0 0 0 0 0 0 0 0 0 0 0 0 0 0 0 0 0 0 0
0 0 0 0 0 0 0 0 0 0 0 0 0 0 0 0 0 0 0 0 0 0 0 0 0 0 0 0 0 0 0 0 0 0 0 0 0 0 0 0 0 0 0 0
0 0 0 0 0 0 0 0 0 0 0 0 0 0 0 0 0 0 0 0 0 0 0 0 0 0 0 0 0 0 0 0 0 0 0 0 0 0 0 0 0 0 0 0
0 0 0 0 0 0 0 0 0 0 0 0 0 0 0 0 0 0 0 0 0 0 0 0 0 0 0 0 0 0 0 0 0 0 0 0 0 0 0 0 0 0 0 0
0 0 0 0 0 0 0 0 0 0 0 0 0 0 0 0 0 0 0 0 0 0 0 0 0 0 0 0 0 0 0 0 0 0 0 0 0 0 0 0 0 0 0 0
0 0 0 0 0 0 0 0 0 0 0 0 0 0 0 0 0 0 0 0 0 0 0 0 0 0 0 0 0 0 0 0 0 0 0 0 0 0 0 0 0 0 0 0
0 0 0 0 0 0 0 0 0 0 0 0 0 0 0 0 0 0 0 0 0 0 0 0 0 0 0 0 0 0 0 0 0 0 0 0 0 0 0 0 0 0 0 0
0 0 0 0 0 0 0 0 0 0 0 0 0 0 0 0 0 0 0 0 0 0 0 0 0 0 0 0 0 0 0 0 0 0 0 0 0 0 0 0 0 0 0 0
0 0 0 0 0 0 0 0 0 0 0 0 0 0 0 0 0 0 0 0 0 0 0 0 0 0 0 0 0 0 0 0 0 0 0 0 0 0 0 0 0 0 0 0
0 0 0 0 0 0 0 0 0 0 0 0 0 0 0 0 0 0 0 0 0 0 0 0 0 0 0 0 0 0 0 0 0 0 0 0 0 0 0 0 0 0 0 0
0 0 0 0 0 0 0 0 0 0 0 0 0 0 0 0 0 0 0 0 0 0 0 0 0 0 0 0 0 0 0 0 0 0 0 0 0 0 0 0 0 0 0 0
0 0 0 0 0 0 0 0 0 0 0 0 0 0 0 0 0 0 0 0 0 0 0 0 0 0 0 0 0 0 0 0 0 0 0 0 0 0 0 0 0 0 0 0
0 0 0 0 0 0 0 0 0 0 0 0 0 0 0 0 0 0 0 0 0 0 0 0 0 0 0 0 0 0 0 0 0 0 0 0 0 0 0 0 0 0 0 0
Wind_Speed
3 4 2 4 4 4 4 3 1 1 1 2 2 3 3 4 5 5 5 5 5 6 4 4 4 4 5 4 4 4 5 4 3 2 2 2 2 2 2 3 3 3 3 3
5 1 4 2 3 4 3 3 1 1 1 1 1 3 3 5 6 7 7 8 7 5 3 4 4 4 4 5 4 4 5 4 3 2 2 2 2 1 1 2 3 3 3 3
3 3 1 4 4 3 1 3 3 2 1 2 1 3 3 3 4 4 6 6 6 8 7 6 5 5 5 5 5 5 5 4 3 3 3 3 3 3 2 3 2 3 3 3
1 1 3 3 2 4 2 3 3 3 2 1 1 3 5 4 4 7 8 7 8 8 7 6 6 6 6 6 5 5 5 4 3 4 4 4 2 1 0 0 1 2 3 3
1 1 3 2 3 4 3 2 3 2 2 1 0 1 6 1 5 9 10 10 9 9 9 8 7 7 6 6 5 5 5 4 3 4 4 4 3 1 1 1 2 3 3 3
1 1 2 3 1 3 4 5 4 4 3 2 3 3 6 4 8 7 9 10 10 9 9 8 6 5 5 4 5 5 5 4 3 4 4 4 4 3 2 1 1 2 2 2
2 2 0 2 3 3 4 5 3 3 2 4 2 3 8 6 7 8 9 11 10 10 10 9 7 7 6 6 6 5 6 4 4 4 4 4 4 4 3 2 1 1 1 1
1 3 3 2 4 4 3 5 5 2 3 3 1 4 7 5 4 5 6 7 9 9 9 10 9 8 7 7 7 7 7 5 4 4 4 3 3 3 2 2 2 1 1 0
5 4 2 2 2 6 4 3 4 4 1 1 4 5 7 1 2 1 4 6 9 10 10 10 9 9 8 8 8 8 8 6 5 5 4 3 3 3 3 2 2 1 1 1
6 3 2 0 3 1 4 6 4 3 2 2 4 4 4 4 3 1 3 6 8 9 9 9 9 9 8 8 7 7 7 7 5 5 4 4 3 3 3 2 2 2 1 1
4 4 0 1 3 4 3 3 4 3 3 3 2 6 5 6 5 5 5 6 8 10 10 10 9 8 8 7 7 7 6 6 5 5 4 4 3 3 3 3 2 2 2 2
4 5 1 4 3 3 4 5 6 4 2 2 2 8 5 4 4 4 4 5 7 8 8 8 8 7 7 8 7 7 7 6 6 6 5 4 4 4 3 3 2 2 2 2
6 6 3 4 3 1 1 3 4 4 4 3 3 7 4 2 1 2 3 4 5 7 7 6 7 8 8 8 8 8 8 7 6 6 6 5 4 4 4 3 3 3 3 2
6 5 6 7 6 4 3 3 5 5 4 4 6 7 7 5 3 3 3 4 5 7 8 8 8 8 8 8 8 8 8 7 7 6 6 6 5 5 5 4 3 3 3 3
5 4 4 4 4 4 4 5 7 6 7 7 7 7 9 7 5 4 3 3 5 6 7 9 9 8 8 7 7 8 7 7 7 7 6 6 5 5 4 4 3 3 3 3
3 3 2 1 2 3 3 5 7 7 6 6 5 8 8 5 2 2 3 4 6 7 8 9 9 9 9 9 9 8 8 8 7 8 7 6 5 5 5 4 4 3 3 2
3 4 3 2 2 1 5 7 7 5 5 7 8 9 4 2 4 5 5 6 7 7 8 9 10 10 10 10 10 10 9 8 8 8 7 6 6 6 6 5 4 4 3 3
6 5 3 1 1 5 8 4 5 5 5 6 6 5 4 6 5 4 5 6 6 6 7 8 8 9 8 8 8 8 8 8 8 7 7 7 7 6 6 5 5 4 3 3
6 7 4 3 3 6 7 3 5 5 5 5 6 5 3 1 2 3 4 5 7 7 7 7 8 8 7 8 8 8 8 8 8 8 8 8 8 7 7 6 5 4 3 3
4 5 5 4 4 6 7 3 3 4 4 4 5 5 3 4 1 5 3 3 3 4 4 5 5 6 7 7 8 9 8 8 9 9 8 7 8 8 7 7 5 4 3 3
3 3 4 5 5 8 7 2 5 4 7 4 4 5 6 7 7 5 2 2 3 4 4 5 6 6 6 7 9 9 8 10 9 7 6 6 7 7 7 5 4 4 4 3
7 6 5 5 4 8 3 5 7 7 4 2 3 4 6 5 4 2 2 2 3 4 4 6 6 5 5 7 9 9 9 8 6 7 7 6 6 6 6 5 4 4 5 4
7 8 7 9 8 5 3 6 5 3 3 3 3 3 4 4 4 3 2 3 3 5 5 5 6 6 4 6 8 10 8 7 7 7 7 6 6 5 5 6 6 4 4 4
4 2 3 4 6 4 4 3 3 3 4 4 3 3 4 4 4 3 3 3 3 4 5 5 6 6 5 5 6 7 6 8 8 7 6 6 6 5 4 4 4 4 5 4
5 4 3 4 5 3 3 3 3 2 2 1 1 2 4 4 4 4 4 4 4 4 4 5 7 7 6 5 5 5 6 8 8 7 6 6 5 5 4 3 3 4 4 6
5 7 7 7 6 5 5 4 2 2 2 2 2 1 1 3 5 4 4 4 4 4 4 5 6 6 6 6 5 5 6 8 9 7 6 5 4 4 4 4 2 1 2 4
Wind_Direction
42 76 160 206 189 167 146 136 151 244 263 143 186 217 210 188 193 198 199 205 209 209 208 180 164 151 141 136 135 140 137 136 124 106 97 81 54 24 21 24 34 46 56 66
47 330 240 172 132 121 129 124 139 333 347 143 208 253 235 198 205 204 202 206 207 203 192 180 166 160 160 160 156 152 153 155 153 136 125 116 108 66 29 13 29 35 49 57
156 245 144 125 125 121 140 169 182 182 22 48 68 310 253 227 211 215 214 209 205 201 197 190 181 179 169 173 174 170 168 161 148 129 104 81 57 37 26 18 14 12 37 59
200 260 122 125 154 149 212 203 167 144 102 311 103 291 273 223 221 222 218 209 208 206 197 191 185 182 187 190 179 169 166 155 144 137 134 129 122 122 249 347 2 14 36 54
235 164 135 164 200 167 186 132 120 116 118 14 340 234 285 205 231 232 221 214 210 202 195 193 190 189 192 183 174 166 157 149 146 148 148 135 128 134 85 43 43 35 29 38
233 196 170 189 152 131 120 77 60 52 66 323 240 196 279 231 221 228 215 211 206 197 194 193 189 181 181 173 165 159 157 157 155 152 152 150 148 141 118 86 60 34 21 18
343 333 294 135 97 59 90 89 42 11 11 269 239 210 255 250 229 215 209 204 199 189 186 187 182 182 181 174 172 167 166 166 161 155 155 159 157 155 157 157 140 102 41 12
157 282 236 181 161 163 156 138 152 190 230 285 296 245 259 267 262 221 201 190 183 181 184 187 186 185 183 180 175 173 175 173 165 160 160 156 151 149 158 159 151 153 161 205
177 245 276 194 157 138 142 172 167 139 182 290 285 288 301 304 357 129 164 167 180 185 186 189 186 184 183 179 181 181 177 172 171 169 157 153 154 152 157 153 140 145 156 115
155 190 271 207 91 61 146 148 112 122 151 281 300 288 266 283 284 250 189 187 188 185 187 189 188 185 185 183 180 175 174 175 171 165 162 159 161 162 155 143 148 148 137 101
134 141 315 104 178 187 127 129 124 125 156 161 279 279 238 236 234 224 222 203 189 186 188 189 189 185 179 172 170 172 173 168 166 166 158 152 158 155 145 149 160 154 139 132
146 122 171 249 252 181 171 172 149 151 208 172 190 271 279 250 242 217 222 206 190 187 187 186 180 171 169 172 174 176 177 176 177 168 159 161 157 150 150 155 161 151 144 139
142 117 92 349 343 7 178 170 151 132 123 160 189 269 307 335 301 224 213 205 187 181 178 173 170 174 179 181 180 181 182 181 174 161 160 159 159 159 166 168 160 150 143 132
123 125 163 192 216 198 216 197 163 142 160 203 225 257 296 301 288 267 229 204 181 179 177 175 180 186 186 184 183 182 184 178 169 163 164 169 177 177 176 168 157 156 150 144
120 154 200 224 223 192 212 212 188 190 193 195 231 239 259 255 241 240 217 189 174 177 180 184 187 189 186 182 183 182 182 177 170 166 172 182 181 172 163 160 160 155 152 158
109 147 155 282 255 209 232 227 205 211 209 218 241 260 255 254 223 224 213 190 190 193 192 191 190 188 187 186 185 181 182 178 169 173 182 178 169 166 166 167 161 151 154 156
129 131 130 260 306 25 260 229 203 204 208 193 218 241 260 243 223 216 210 203 204 202 197 194 193 192 191 189 184 185 184 172 172 178 180 175 173 174 176 168 159 163 167 160
143 127 134 156 78 238 246 233 197 199 226 210 221 239 228 227 233 228 204 201 209 205 198 197 192 191 189 182 180 178 168 169 175 179 180 176 174 178 172 164 169 175 165 167
153 141 136 144 198 269 288 252 184 184 250 221 217 239 232 192 36 306 220 200 206 203 200 196 189 181 176 175 170 161 165 169 173 181 184 181 176 174 169 172 179 176 166 178
104 126 133 146 175 231 246 254 186 137 268 252 205 217 193 124 124 263 247 208 212 193 183 175 166 158 166 172 158 159 167 171 185 190 187 179 174 173 176 181 178 170 172 185
123 120 158 174 206 252 249 232 121 155 241 254 202 203 178 183 207 234 219 193 190 172 165 153 150 160 173 162 154 163 170 189 193 179 169 169 172 175 176 174 168 162 161 158
172 167 181 163 195 247 234 146 173 214 241 232 215 203 190 204 224 223 180 184 169 156 150 150 150 160 159 157 158 167 187 192 169 159 163 170 172 173 167 158 159 155 153 155
193 188 184 188 210 233 203 201 223 201 210 233 216 221 187 196 222 213 193 188 179 168 163 159 156 154 155 165 168 177 190 165 151 154 164 166 161 161 158 158 159 155 157 161
246 170 161 228 255 250 248 243 245 215 215 236 225 203 184 200 209 198 192 188 185 175 169 161 153 157 168 176 177 183 168 154 151 156 159 154 152 153 156 159 164 165 171 174
207 168 179 242 264 293 288 251 252 261 243 229 248 205 192 185 200 194 191 191 186 177 169 164 165 170 176 170 171 165 156 150 150 153 153 152 153 154 153 156 172 181 192 187
199 181 181 221 224 201 244 257 256 248 247 220 196 238 233 190 196 192 188 186 176 172 164 165 168 167 166 159 161 157 153 154 151 151 154 156 153 153 152 146 118 71 162 184